Weather History for KSLK - May, 2012

Change the Weather History Date:

Friday, May 11, 2012

  Actual Average Record
Temperature  
Mean Temperature 44 °F 48 °F  
Max Temperature 58 °F 62 °F - ()
Min Temperature 29 °F 35 °F - ()
Degree Days  
Heating Degree Days 18 17  
Month to date heating degree days 203  
Since 1 July heating degree days 8974  
Cooling Degree Days 0 0  
Month to date cooling degree days 0 0  
Year to date cooling degree days 4 0  
Moisture  
Dew Point 31 °F    
Average Humidity 61    
Maximum Humidity 92    
Minimum Humidity 30    
Precipitation  
Precipitation 0.05 in 0.10 in - ()
Month to date precipitation 2.23 1.05  
Year to date precipitation 10.15 9.96  
Sea Level Pressure  
Sea Level Pressure 29.89 in    
Wind  
Wind Speed 6 mph (WNW)    
Max Wind Speed 16 mph    
Max Gust Speed 26 mph    
Visibility 10 miles    
Events Rain    
T = Trace of Precipitation, MM = Missing Value Source: NWS Daily Summary

Daily Weather History Graph

Daily Weather History Graph

Search for Another Location

Airport or City:

Trip Planner

Search our weather history database for the weather conditions in past years. The results will help you decide how hot, cold, wet, or windy it might be!

Date:

Astronomy

May. 11, 2012 Rise Set
Actual Time 5:33 AM EDT 8:13 PM EDT
Civil Twilight 5:00 AM EDT 8:46 PM EDT
Nautical Twilight 4:18 AM EDT 9:28 PM EDT
Astronomical Twilight 3:30 AM EDT 10:17 PM EDT
Moon 12:49 AM EDT (5/11) 11:05 AM EDT (5/11)
Length of Visible Light 15h 46m
Length of Day
14h 39m
Waning Gibbous, 63% of the Moon is Illuminated
May 11
Waning Gibbous
May 12
Last Quarter
May 20
New
May 28
First Quarter
Jun 4
Full

Hourly Weather History & Observations

Time (EDT) Temp. Windchill Dew Point Humidity Pressure Visibility Wind Dir Wind Speed Gust Speed Precip Events Conditions
12:51 AM 39.0 °F 34.0 °F 37.0 °F 93% 29.75 in 9.0 mi Variable 6.9 mph - 0.00 in Rain Light Rain
1:51 AM 39.0 °F 34.8 °F 36.0 °F 89% 29.76 in 10.0 mi Variable 5.8 mph - 0.02 in Rain Light Rain
2:51 AM 39.0 °F 36.8 °F 37.0 °F 93% 29.78 in 8.0 mi North 3.5 mph - 0.02 in Rain Light Rain
3:28 AM 37.4 °F - 37.4 °F 100% 29.75 in 10.0 mi Calm Calm - 0.01 in Rain Light Rain
3:51 AM 37.9 °F 35.5 °F 36.0 °F 93% 29.79 in 10.0 mi WNW 3.5 mph - 0.01 in   Overcast
4:51 AM 37.9 °F - 36.0 °F 93% 29.82 in 10.0 mi Calm Calm - N/A   Overcast
5:51 AM 37.0 °F 34.5 °F 35.1 °F 93% 29.83 in 10.0 mi WSW 3.5 mph - N/A   Overcast
6:51 AM 37.9 °F 33.5 °F 35.1 °F 89% 29.84 in 10.0 mi WSW 5.8 mph - N/A   Clear
7:51 AM 39.9 °F 35.8 °F 36.0 °F 86% 29.86 in 10.0 mi WSW 5.8 mph - N/A   Clear
8:51 AM 45.0 °F 41.2 °F 36.0 °F 71% 29.88 in 10.0 mi Variable 6.9 mph - N/A   Clear
9:51 AM 48.0 °F - 36.0 °F 63% 29.89 in 10.0 mi West 8.1 mph - N/A   Clear
10:51 AM 51.1 °F - 30.9 °F 46% 29.89 in 10.0 mi WNW 10.4 mph 17.3 mph N/A   Partly Cloudy
11:51 AM 52.0 °F - 26.1 °F 37% 29.90 in 10.0 mi WNW 12.7 mph 21.9 mph N/A   Clear
12:51 PM 54.0 °F - 27.0 °F 35% 29.91 in 10.0 mi West 9.2 mph 24.2 mph N/A   Partly Cloudy
1:51 PM 57.0 °F - 27.0 °F 32% 29.91 in 10.0 mi WNW 9.2 mph 19.6 mph N/A   Clear
2:51 PM 57.0 °F - 27.0 °F 32% 29.92 in 10.0 mi West 10.4 mph 19.6 mph N/A   Partly Cloudy
3:51 PM 55.9 °F - 25.0 °F 30% 29.93 in 10.0 mi NNW 8.1 mph 21.9 mph N/A   Clear
4:51 PM 55.9 °F - 24.1 °F 29% 29.95 in 10.0 mi Variable 4.6 mph 20.7 mph N/A   Clear
5:51 PM 55.9 °F - 25.0 °F 30% 29.96 in 10.0 mi WNW 10.4 mph 19.6 mph N/A   Mostly Cloudy
6:51 PM 55.0 °F - 25.0 °F 31% 29.98 in 10.0 mi WNW 6.9 mph - N/A   Clear
7:51 PM 54.0 °F - 24.1 °F 31% 29.99 in 10.0 mi West 3.5 mph - N/A   Clear
8:51 PM 48.9 °F - 26.1 °F 41% 30.01 in 10.0 mi West 4.6 mph - N/A   Clear
10:51 PM 36.0 °F - 28.9 °F 76% 30.06 in 10.0 mi Calm Calm - N/A   Clear
11:51 PM 32.0 °F - 28.0 °F 85% 30.08 in 10.0 mi Calm Calm - N/A   Clear